Main page
METAR-TAF:

METAR-TAF

Airports :

Cascais, Portugal

Cascais Municipal Aerodrome

latitude: 38-43-32N, longitude: 009-21-19W, elevation: 99 m

Current weather observation

The report was made 1 hour and 19 minutes ago, at 19:00 UTC
Wind 8 kt from the North
Temperature 10°C
Humidity 57%
Pressure 1031 hPa
Visibility 10 km or more
no clouds below 1500 m and no cumulonimbus

METAR: LPCS 181900Z 01008KT CAVOK 10/02 Q1031

Time: 20:19 (20:19 UTC)


TAF: missing

Weather observations and forecasts of more than 4000 airports (METAR and TAF reports).

The available stations are represented by yellow and red dots on the map.

Hover mouse over dot to see the name of the station.

Then click to see weather observations and forecasts.

To change the map : click on the green buttons with a black cross to zoom in, on the green button with a dash to zoom out, or on the green arrows for adjacent maps.


METAR-TAF: